Regional Weather Roundup
Issued by NWS Boston, MA

Home | Current Version | Previous Version | Text Only | Print | Product List | Glossary On
Versions: 1 2 3 4 5 6 7 8 9 10 11 12 13 14 15 16 17 18 19 20 21 22 23 24 25 26 27 28 29 30 31 32 33 34 35 36 37 38 39 40 41 42 43 44 45 46 47 48 49
000
ASUS41 KBOX 042110
RWRBOX

REGIONAL WEATHER ROUNDUP
NATIONAL WEATHER SERVICE TAUNTON MA
500 PM EDT FRI SEP 04 2015

NOTE:  "FAIR" INDICATES FEW OR NO CLOUDS BELOW 12,000 FEET WITH NO
SIGNIFICANT WEATHER AND/OR OBSTRUCTIONS TO VISIBILITY.  THE FOLLOWING
OBSERVATION LOCATIONS DO NOT REPORT PRESENT WEATHER...PROVINCETOWN...
SMITHFIELD...BLOCK ISLAND...KEENE...AND OXFORD.

MAZALL-042200-
EASTERN MASSACHUSETTS

CITY           SKY/WX    TMP DP  RH WIND       PRES   REMARKS
BOSTON         FAIR      67  60  78 E13       30.21R
BEVERLY        FAIR      69  53  56 NE10      30.20S
LAWRENCE       FAIR      71  50  47 E7        30.22S
BEDFORD        FAIR      71  54  54 E10       30.18S
BLUE HILL        N/A     66  58  75 E8        30.20R
NORWOOD        FAIR      70  59  68 NE8       30.19S
MARSHFIELD     FAIR      70  63  78 NE7       30.21R
PLYMOUTH       CLOUDY    68  62  81 NE12      30.19S
TAUNTON        CLOUDY    74  59  59 NE7       30.17S
NEW BEDFORD    FAIR      72  60  66 NE14G21   30.16R
$$

MAZALL-042200-
CAPE COD AND THE ISLANDS

CITY           SKY/WX    TMP DP  RH WIND       PRES   REMARKS
FALMOUTH       CLOUDY    70  61  73 NE15G21   30.17R
HYANNIS        CLOUDY    71  61  70 NE10      30.15S
CHATHAM        CLOUDY    68  61  78 NE13G22   30.17S
PROVINCETOWN     N/A     70  61  73 NE10      30.19R
NANTUCKET      FAIR      70  63  78 NE18G25   30.15R
MARTHAS VNYRD  PTSUNNY   74  62  66 NE15G22   30.15R
$$

MAZALL-042200-
CENTRAL AND WESTERN MASSACHUSETTS

CITY           SKY/WX    TMP DP  RH WIND       PRES   REMARKS
WORCESTER      FAIR      72  55  55 E9        30.20S
FITCHBURG      FAIR      76  53  44 E8        30.19S
ORANGE         FAIR      78  53  41 E3        30.17S
SPRINGFIELD    FAIR      79  58  48 VRB5      30.14S
WESTFIELD      PTSUNNY   79  57  46 NE7       30.15S
NORTH ADAMS    FAIR      77  60  55 SE8       30.16S
PITTSFIELD     FAIR      75  59  57 SE8       30.17S
$$

RIZALL-042200-
RHODE ISLAND

CITY           SKY/WX    TMP DP  RH WIND       PRES   REMARKS
PROVIDENCE     FAIR      74  59  59 NE14      30.17R
NEWPORT        FAIR      75  61  61 N12       30.16R
BLOCK ISLAND   FAIR      72  64  78 E12G18    30.15R
SMITHFIELD     FAIR      72  57  60 NE10      30.18S
WESTERLY       FAIR      78  59  51 NE13      30.14S
$$

CTZALL-042200-
CONNECTICUT

CITY           SKY/WX    TMP DP  RH WIND       PRES   REMARKS
BRADLEY INTL   FAIR      81  58  45 NE10      30.13S
HARTFORD       FAIR      83  60  45 E6        30.12S
BRIDGEPORT     FAIR      80  65  59 E13       30.12R
DANBURY        PTSUNNY   80  61  52 E8        30.14R
GROTON         FAIR      80  61  52 NE10      30.13R
NEW HAVEN      PTSUNNY   80  65  59 SE10      30.13R
CHESTER        NOT AVBL
MERIDEN        CLOUDY    83  58  42 SE7       30.13R
WILLIMANTIC    FAIR      80  59  48 N10       30.15R
OXFORD         MOSUNNY   81  61  50 E6        30.17R
$$

MEZ002-015-021-024-NHZ003-005-008-011-012-014-VTZ005-008-042200-
NORTHERN NEW ENGLAND

CITY           SKY/WX    TMP DP  RH WIND       PRES   REMARKS
PORTLAND ME    FAIR      69  52  54 SE7       30.21R
BANGOR ME      FAIR      74  47  38 N9        30.19F
CONCORD NH     FAIR      77  55  46 E3        30.18S
MANCHESTER NH  FAIR      75  53  46 SE9       30.18R
NASHUA NH      FAIR      75  56  51 E12G18    30.20R
PORTSMOUTH NH  MOSUNNY   69  48  47 SE9       30.20S
JAFFREY NH     FAIR      75  54  47 VRB5      30.21S
KEENE NH       FAIR      77  55  47 E7        30.18S
BURLINGTON VT  FAIR      80  57  45 W7        30.16S
MT. WASHINGTON MOSUNNY   55  48  76 W14         N/A
$$

NYZ052-076-042200-
EASTERN NEW YORK

CITY           SKY/WX    TMP DP  RH WIND       PRES   REMARKS
ALBANY         FAIR      83  63  50 SW6       30.12S
NEW YORK CITY  FAIR      82  64  54 NE13      30.10S
$$

ANZALL-042200-
MARINE OBSERVATIONS

STATION/POSITION TIME  TEMP    WIND        PRES    VSBY  WAVE
                       AIR SEA DIR/SP/G                  HT/PER
                 (UTC) (F)     (DEG/KT/KT) (MB)    (MI)  (FT/S)
BOSTON BUOY      2050   65 68   40/ 12/ 14 1022.6R         4/ 6
BUZZARDS BAY     2000           50/ 21/ 23 1021.4R
NANTUCKET SOUND  2050   68 75   30/ 19/ 21 1020.3S         2/ 3
MASS BAY-STELLWA 2004   65 68   50/ 12/ 14   N/A    1 7/8  4/ 5
ISLE OF SHOALS   2100   63     100/  6/  7 1022.5S
S OF BLOCK IS    2008      71                N/A           5/ 5
$$

......................KEY.........................
  SKY/WX - SKY CONDITION/PRESENT WEATHER
  TMP    - TEMPERATURE IN FAHRENHEIT
  DWPT   - DEWPOINT IN FAHRENHEIT
  RH     - RELATIVE HUMIDITY IN PERCENT
  WIND   - DIRECTION AND SPEED IN MPH
  PRES   - MEAN SEA LEVEL PRESSURE IN INCHES OF HG
  WCI    - WIND CHILL INDEX
  VSB    - VISIBILITY IN MILES
  HX     - HEAT INDEX
  TC     - TEMPERATURE IN CELSIUS
  VRB    - VARIABLE WIND DIRECTION
  N/A    - NOT AVAILABLE


USA.gov is the U.S. government's official web portal to all federal, state and local government web resources and services.